Погода в Алаколе

Казахстан     54°01′16″N   75°55′57″E
темп.,
°C
ветер,
м/с
пор.,
м/с
влажн.,
%
обл.,
%
осадки,
мм/ч
давл.,
гПа
погр.,
м
26 октября, вт
вт2600:00+8ю4853100 0.0 1014183
03:00+8ю4953100 0.0 1011201
06:00+8ю51254100 0.0 1008289
09:00+9ююз61352100 0.0 1005397
12:00+11зюз71149100 0.0 1004925
15:00+4зсз81494100 0.6 1007742
18:00+5зсз10136284 0.6 10121435
21:00+1зсз813605 0.0 10171121
27 октября, ср
ср2700:000зсз611625 0.0 1022763
03:00−2зсз49684 0.0 1025392
06:00−3зюз36765 0.0 1027156
09:00−3зюз367110 0.0 1028197
12:00+1зюз56485 0.0 1028832
15:00+3зюз674036 0.0 10261063
18:00+1юз374971 0.0 1027158
21:000юз375360 0.0 1027138
28 октября, чт
чт2800:00−1ююз485420 0.0 1026150
03:00−2ююз49545 0.0 1026161
06:00−2ююз49555 0.0 1025163
09:00−1ююз512505 0.0 1025290
12:00+4ююз711335 0.0 1024629
15:00+6ююз81129100 0.0 1022883
18:00+4ююз7133395 0.0 1022464
21:00+3ююз7153590 0.0 1021402
29 октября, пт
пт2900:00+3ююз71438100 0.0 1020390
03:00+2ююз71341100 0.0 1019382
06:00+2юз71343100 0.0 1019364
09:00+1юз7134497 0.0 1019400
12:00+5юз8123380 0.0 1019658
15:00+7юз81232100 0.0 1019997
18:00+5юз71335100 0.0 1020414
21:00+5юз71438100 0.0 1020514
30 октября, сб
сб3000:00+4юз71441100 0.0 1019520
03:00+4юз71342100 0.0 1020569
06:00+4зюз71248100 0.0 1020845
09:00−1сз61190100 0.7 1024619
12:00−1сз79515 0.8 1027986
15:000зсз57445 0.0 10281142
18:00−2зсз345355 0.0 103072
21:00−3зюз2257100 0.0 103024